    P/2003 O3 (LINEAR)                                                    

T 2003 Aug. 14.06354 TT                                 Nakano

q   1.2464251            (2000.0)            P               Q

n   0.18003298     Peri.    0.76291     +0.95243672     +0.30122075

a   3.1062376      Node   341.50323     -0.28035510     +0.80676221

e   0.5987348      Incl.    8.36544     -0.11943745     +0.50833139

P   5.47 (+/- 0.58 day)

From 177 observations 2003 July 30-Sept. 8.

                         

NAKANO

         **** Don't distribute anyone except personal use only ****

                (C) Copyright 2003 OAA/ComputingSection

write mail from CFAD0::NAKANO on 2003-09-14 04:53:52(JST).



◎P/2003 O3の軌道と予報位置です



 9月3日の久万の中村彰正氏の観測によると CCD全光度は17.9等,5日の

ASO のシェロ−ドの核光度は18.2等でした.



    P/2003 O3 (LINEAR)                                                    

T 2003 Aug. 14.06322 TT                                 Nakano

q   1.2465156            (2000.0)            P               Q

n   0.17979260     Peri.    0.76266     +0.95246220     +0.30114039

a   3.1090056      Node   341.50827     -0.28028196     +0.80676746

e   0.5990629      Incl.    8.36740     -0.11940593     +0.50837066

P   5.48 (+/- 0.86 day)

From 169 observations 2003 July 30-Sept. 5.

 

Date/        TT  R.A.(2000) Decl.     Delta   r     Daily motion  Mag.  Moon Age

              h    h  m       。  ,                      ,  / PA 。  m1      。

2003 Sept. 5 18  02 52.66  +24 57.1   0.469  1.275    35.4 /  39  17.4  127  .74

           6 18  02 54.30  +25 24.7   0.469  1.278    34.5 /  38  17.5  114  .83

           7 18  02 55.88  +25 51.8   0.469  1.281    33.6 /  37  17.5  101  .90

           8 18  02 57.40  +26 18.5   0.470  1.283    32.8 /  37  17.5   88  .96

           9 18  02 58.86  +26 44.7   0.470  1.286    31.9 /  36  17.5   76  .99

          10 18  03 00.27  +27 10.5   0.470  1.289    31.0 /  35  17.5   64 1.00

          11 18  03 01.61  +27 35.8   0.471  1.292    30.1 /  34  17.5   52  .99

          12 18  03 02.89  +28 00.6   0.471  1.295    29.2 /  33  17.6   40  .96

          13 18  03 04.11  +28 25.0   0.472  1.299    28.3 /  32  17.6   29  .91

          14 18  03 05.26  +28 49.0   0.473  1.302    27.5 /  31  17.6   19  .85

          15 18  03 06.35  +29 12.4   0.473  1.305    26.6 /  30  17.6   12  .77

          16 18  03 07.38  +29 35.4   0.474  1.309    25.7 /  29  17.6   14  .69

          17 18  03 08.33  +29 57.9   0.474  1.312    24.9 /  28  17.7   22  .60

          18 18  03 09.22  +30 19.9   0.475  1.316    24.0 /  26  17.7   33  .50

          19 18  03 10.05  +30 41.4   0.476  1.320    23.1 /  25  17.7   44  .41

          20 18  03 10.80  +31 02.4   0.477  1.324    22.3 /  23  17.7   56  .31

          21 18  03 11.49  +31 22.9   0.478  1.328    21.5 /  21  17.7   68  .22

          22 18  03 12.10  +31 42.9   0.479  1.332    20.7 /  20  17.8   80  .14

          23 18  03 12.65  +32 02.4   0.480  1.336    19.9 /  18  17.8   93  .08

          24 18  03 13.12  +32 21.4   0.481  1.340    19.1 /  15  17.8  106  .03

          25 18  03 13.52  +32 39.8   0.482  1.344    18.4 /  13  17.8  120  .00

          26 18  03 13.86  +32 57.7   0.483  1.349    17.7 /  11  17.9  134  .01

          27 18  03 14.12  +33 15.1   0.484  1.353    17.0 /   8  17.9  147  .04

          28 18  03 14.32  +33 31.9   0.485  1.358    16.3 /   5  17.9  159  .10

          29 18  03 14.44  +33 48.1   0.487  1.362    15.7 /   3  18.0  165  .18

          30 18  03 14.50  +34 03.8   0.488  1.367    15.1 / 359  18.0  160  .27

     Oct.  1 18  03 14.49  +34 19.0   0.490  1.372    14.6 / 356  18.0  149  .38

           2 18  03 14.41  +34 33.5   0.491  1.376    14.1 / 353  18.0  136  .49

           3 18  03 14.26  +34 47.5   0.493  1.381    13.6 / 349  18.1  123  .60

           4 18  03 14.06  +35 00.9   0.494  1.386    13.2 / 345  18.1  110  .71

           5 18  03 13.78  +35 13.7   0.496  1.391    12.9 / 342  18.1   98  .80

           6 18  03 13.45  +35 25.9   0.498  1.396    12.6 / 338  18.2   85  .88

           7 18  03 13.06  +35 37.6   0.500  1.402    12.3 / 333  18.2   73  .93

           8 18  03 12.60  +35 48.6   0.502  1.407    12.1 / 329  18.2   61  .98

           9 18  03 12.09  +35 59.0   0.504  1.412    12.0 / 325  18.3   50 1.00

          10 18  03 11.52  +36 08.8   0.506  1.417    11.9 / 321  18.3   39 1.00

NAKANO

         **** Don't distribute anyone except personal use only ****

                (C) Copyright 2003 OAA/ComputingSection

write mail from CFAD0::NAKANO on 2003-09-09 05:10:25(JST).

 

    P/2003 O3 (LINEAR)                                                    

T 2003 Aug. 14.02249 TT                                 Nakano

q   1.2509352            (2000.0)            P               Q

n   0.16791755     Peri.    0.72475     +0.95357334     +0.29762007

a   3.2539085      Node   341.75610     -0.27704449     +0.80694947

e   0.6155592      Incl.    8.45779     -0.11808575     +0.51015179

P   5.87 (+/-27.83 day)

From 124 observations 2003 July 30-Aug. 9.



NAKANO

         **** Don't distribute anyone except personal use only ****

                (C) Copyright 2003 OAA/ComputingSection

write mail from CFAD0::NAKANO on 2003-08-14 04:29:34(JST).





戻ります。